Location: Chippewa Lake
(41.0698°N, 81.9010°W)
Time: 02:03:28
(UTC+00:00)

USA 308 - Pass Details

Date: 09 May 2021
Orbit: 568 x 576 km, 54.0° (Epoch: 10 May)

Event Time Altitude Azimuth Distance (km) Brightness Sun altitude
Rises 03:42:39 0° 313° (NW) 2,785 7.5 -27.0°
Reaches altitude 10° 03:45:04 10° 322° (NW) 1,886 6.5 -27.2°
Enters shadow 03:48:47 36° 21° (NNE) 924 4.2 -27.5°
